SCP
1 0 0 0 0 0 0 0 0 0 0 0 0 0 0 0 0 0 0 0 0 0 0 0 0 1 1 1 1 1 1 1 1 1 1 1 1 1 1 1 1 1 1 1 1 1 1 1 1
1 1 0 0 0 0 0 0 0 0 0 0 0 0 0 0 0 0 0 0 0 0 0 0 0 1 1 1 1 1 1 1 1 1 1 1 1 1 1 1 1 1 1 1 1 1 1 1 1
1 1 0 0 0 0 0 0 0 0 0 0 0 0 0 0 0 0 0 0 0 0 0 0 0 1 1 1 0 0 0 0 0 0 1 1 1 1 1 1 1 1 1 1 1 1 1 1 1
1 0 0 0 0 0 0 0 0 0 0 0 0 0 0 0 0 0 0 0 0 0 0 0 0 0 0 0 0 0 0 0 0 0 0 0 0 1 1 1 1 1 1 1 1 1 1 1 1
1 0 0 0 0 0 0 0 0 0 0 0 0 0 0 0 0 0 0 0 0 0 0 0 0 0 0 0 0 0 0 0 0 0 0 0 0 0 0 1 1 1 1 1 1 1 1 1 1
1 0 0 0 0 0 0 0 0 0 0 0 0 0 0 0 0 0 1 0 0 0 0 0 0 0 0 0 0 0 0 0 0 0 0 0 0 0 0 0 1 1 1 2 2 2 1 1 1
1 0 0 0 0 0 0 0 0 0 0 0 0 0 0 0 0 0 0 0 0 0 0 0 0 0 0 0 0 0 0 0 0 0 0 0 0 0 0 0 0 1 1 2 2 1 1 1 1
1 1 0 0 0 0 0 0 0 0 0 0 0 0 0 0 0 1 0 0 0 0 0 0 0 0 0 0 0 0 0 0 0 0 0 0 0 0 0 0 0 1 1 1 1 1 1 1 1
1 1 0 0 0 0 0 0 0 0 0 0 0 0 0 0 1 1 1 0 0 0 0 0 0 0 0 0 0 0 0 0 0 0 0 0 0 0 0 0 0 1 1 1 1 1 1 1 1
1 1 0 0 0 0 0 0 0 0 0 0 0 0 0 1 1 1 1 1 1 1 0 0 0 0 0 0 0 0 0 0 0 0 0 0 0 0 0 0 0 0 1 1 1 1 1 1 1
1 1 0 0 0 0 0 0 0 0 0 0 0 0 1 1 1 1 1 1 1 1 0 0 0 0 0 0 0 0 0 0 0 0 0 0 0 0 0 0 0 0 0 0 1 1 1 1 1
1 1 1 1 0 0 0 0 0 0 0 0 0 0 1 1 1 1 1 1 1 1 0 0 0 0 0 0 0 0 0 0 0 0 0 0 0 0 0 0 0 0 0 0 0 0 0 1 1
1 1 1 0 0 0 0 0 0 0 0 0 0 1 1 1 1 1 1 1 1 1 0 0 0 0 0 0 0 0 0 0 0 0 0 0 0 0 0 0 0 0 0 0 0 0 0 0 0
1 1 0 0 0 0 0 0 0 0 0 0 0 0 1 1 1 1 1 1 1 0 0 0 0 0 0 0 0 0 0 0 0 0 0 0 0 0 0 0 0 0 0 0 0 0 0 0 0
0 0 0 0 0 0 0 0 0 0 0 0 0 0 0 1 1 2 2 1 1 0 0 0 0 0 0 0 0 0 0 0 0 0 0 0 0 0 0 0 0 0 0 0 0 0 0 0 0
0 0 0 0 0 0 0 0 0 0 0 0 0 0 0 1 1 2 2 1 1 0 0 0 0 0 0 0 0 0 0 0 0 0 0 0 0 0 0 0 0 0 0 0 0 0 0 0 0
0 0 0 0 0 0 0 0 0 0 0 0 0 0 0 1 1 1 2 1 0 0 0 0 0 0 0 0 0 0 0 0 0 0 0 0 0 0 0 0 0 0 0 0 0 0 0 0 0
0 0 0 0 0 0 0 0 0 0 0 0 0 0 0 1 1 1 2 1 1 0 0 0 0 0 0 0 0 0 0 0 0 0 0 0 0 0 0 0 0 0 0 0 0 0 0 0 0
0 0 0 0 0 0 0 0 0 0 0 0 0 0 0 1 1 2 2 2 1 0 0 0 0 0 0 0 0 0 0 0 0 0 0 0 0 0 0 0 0 0 0 0 0 0 0 0 0
0 0 0 0 0 0 0 0 0 0 0 0 0 0 0 0 1 2 2 2 1 0 0 0 0 0 0 0 0 0 0 0 0 0 0 0 0 0 0 0 0 0 0 0 0 0 0 0 0
0 0 0 0 0 0 0 0 0 0 0 0 0 0 0 0 1 2 2 2 2 1 0 0 0 0 0 0 0 0 0 0 0 0 0 0 0 0 0 0 0 0 0 0 0 0 0 0 0
0 0 0 0 0 0 0 0 0 0 0 0 0 0 0 0 1 1 2 3 2 1 0 0 0 0 0 0 0 0 0 0 0 0 0 0 0 0 0 0 0 0 0 0 0 0 0 0 0
0 0 0 0 0 0 0 0 0 0 0 0 0 0 0 0 0 1 2 3 2 1 0 0 0 0 0 0 0 0 0 0 0 0 0 0 0 0 0 0 0 0 0 0 0 0 0 0 0
0 0 0 0 0 0 0 0 0 0 0 0 0 0 0 0 0 1 2 3 2 1 0 0 0 0 0 0 0 0 0 0 0 0 0 0 0 0 0 0 0 0 0 0 0 0 0 0 0
0 0 0 0 0 0 0 0 0 0 0 0 0 0 0 0 0 0 1 2 2 1 0 0 0 0 0 0 0 0 0 0 0 0 0 0 0 0 0 0 0 0 0 0 0 0 0 0 0
0 0 0 0 0 0 0 0 0 0 0 0 0 0 0 0 0 0 1 2 2 1 0 0 0 0 0 0 0 0 0 0 0 0 0 0 0 0 0 0 0 0 0 0 0 0 0 0 0
0 0 0 0 0 0 0 0 0 0 0 0 0 0 0 0 0 0 1 2 2 1 0 0 0 0 0 0 0 0 0 0 0 0 0 0 0 0 0 0 0 0 0 0 0 0 0 0 0
0 0 0 0 0 0 0 0 0 0 0 0 0 0 0 0 0 0 1 1 1 1 0 0 0 0 0 0 0 0 0 0 0 0 0 0 0 0 0 0 0 0 0 0 0 0 0 0 0
0 0 0 0 0 0 0 0 0 0 0 0 0 0 0 0 0 0 0 1 1 1 0 0 0 0 0 0 0 0 0 0 0 0 0 0 0 0 0 0 0 0 0 0 0 0 0 0 0
0 0 0 0 0 0 0 0 0 0 0 0 0 0 0 0 0 0 0 0 0 0 0 0 0 0 0 0 0 0 0 0 0 0 0 0 0 0 0 0 0 0 0 0 0 0 0 0 0
Wind_Speed
2 4 3 3 4 3 1 1 1 1 1 1 2 4 5 4 2 1 0 4 5 5 4 5 7 7 7 7 6 6 5 5 4 4 3 3 3 2 2 2 1 2 2 2 2 1 1 1 2
3 3 3 3 3 1 2 1 1 2 2 3 3 3 4 3 2 3 2 4 6 5 4 5 7 7 7 6 6 5 5 4 4 3 3 2 1 1 1 0 1 1 2 1 1 1 1 1 1
4 2 3 3 2 2 2 1 1 0 2 2 3 3 3 2 3 3 3 6 6 5 4 4 7 7 6 5 5 4 4 3 3 2 2 2 2 2 2 2 2 2 2 2 2 2 2 2 1
3 3 3 2 1 3 3 2 1 1 2 3 3 3 2 1 4 4 6 7 6 4 3 4 7 7 6 5 5 4 3 2 2 2 2 2 2 3 3 3 3 3 3 3 3 3 3 3 3
3 3 2 1 3 3 2 1 2 1 2 2 3 3 2 2 5 8 8 7 6 4 3 3 7 6 6 5 4 3 2 2 2 2 3 3 3 3 4 4 4 4 4 4 4 4 4 4 3
3 3 2 1 3 3 2 1 0 1 2 3 4 3 1 1 6 7 7 6 5 5 3 3 6 6 5 4 3 2 2 2 2 2 3 3 4 4 4 4 5 5 5 5 5 4 4 5 5
3 3 2 2 2 2 1 1 2 2 2 3 4 4 1 2 4 6 6 5 4 4 3 2 1 2 3 3 2 1 1 2 2 3 3 4 4 4 4 5 5 5 5 5 5 5 5 5 5
3 3 0 1 2 2 1 0 1 2 2 3 4 6 5 5 5 6 5 4 3 3 2 2 1 1 1 1 1 0 1 2 3 4 4 5 6 6 6 6 6 5 5 5 6 6 5 5 5
3 3 0 2 2 3 1 1 2 2 3 2 2 4 4 9 9 7 4 2 2 2 2 2 1 1 1 1 1 1 2 4 4 5 6 5 3 3 4 5 5 5 5 5 5 5 5 4 4
3 2 3 2 2 1 2 1 1 2 1 1 2 2 7 10 10 8 6 6 5 4 3 3 3 2 1 1 1 1 2 3 3 2 3 2 2 3 4 6 7 6 6 5 5 5 4 2 1
3 4 2 1 1 1 1 1 1 3 2 4 5 7 9 9 9 9 8 7 7 5 4 4 3 2 2 1 0 1 1 1 2 3 3 2 2 2 3 2 4 4 5 3 4 3 2 1 1
2 1 1 1 1 1 0 1 1 2 5 4 6 9 10 11 11 10 9 7 5 4 4 4 4 3 2 1 0 0 0 1 1 2 2 1 1 2 2 2 2 2 2 2 2 2 2 2 1
2 1 1 1 1 1 0 1 1 4 4 1 5 8 11 11 10 8 7 6 5 5 4 4 4 4 2 1 1 1 0 0 0 1 1 1 1 1 1 1 2 2 2 2 2 2 2 2 2
1 1 1 1 1 2 1 2 1 5 2 3 6 9 10 10 10 7 6 7 6 6 5 4 4 4 3 2 1 1 1 1 1 1 1 1 1 1 1 1 2 2 2 2 1 2 2 2 1
2 2 3 2 1 1 1 4 4 4 3 5 6 7 8 9 8 9 9 8 8 6 5 5 5 4 3 3 2 1 1 1 1 1 1 1 1 1 1 1 1 2 2 2 1 1 1 1 1
3 3 2 3 1 1 1 5 5 3 4 5 5 6 7 8 8 8 8 7 6 6 6 5 5 5 4 3 2 1 1 1 1 1 1 1 1 1 1 1 1 2 2 2 1 1 1 1 1
3 2 1 3 1 0 1 6 5 2 4 6 6 6 7 7 8 8 7 7 7 7 7 6 5 5 4 3 2 2 1 1 1 1 1 1 2 1 1 1 1 2 2 2 2 1 0 1 2
2 1 1 3 1 1 3 7 8 4 6 7 7 7 7 9 11 8 7 6 6 6 6 6 5 4 4 3 2 2 2 1 1 1 1 1 2 2 1 1 2 2 2 2 1 1 1 1 1
4 2 2 3 1 1 5 8 10 5 4 6 6 7 8 10 7 5 5 6 6 6 6 6 5 4 4 2 2 1 0 1 1 1 2 2 2 2 1 1 2 2 1 2 2 1 1 1 1
2 1 1 2 0 1 4 7 7 4 5 6 7 8 8 6 4 5 6 6 7 7 7 6 6 5 4 3 2 2 1 1 1 1 2 2 2 2 1 1 1 1 1 2 2 1 1 1 1
0 2 2 1 2 2 3 7 6 4 3 2 3 4 5 8 8 7 7 7 7 8 8 8 7 6 5 4 2 2 2 2 2 2 2 2 2 2 2 2 1 1 1 1 1 0 0 0 1
2 3 3 0 2 3 3 3 7 5 6 4 3 3 5 6 6 7 8 8 9 9 7 7 7 6 5 4 3 3 2 1 2 1 2 3 2 2 2 2 1 1 1 1 1 0 0 1 0
3 1 2 2 2 3 4 2 8 5 6 6 5 4 5 5 6 7 9 9 7 7 7 6 6 5 5 4 5 4 2 2 1 1 2 2 2 3 2 1 1 1 1 1 1 1 0 1 1
2 5 5 5 4 4 3 1 5 4 4 7 6 5 4 4 4 5 5 5 5 5 6 6 6 5 5 5 4 5 4 3 1 1 2 2 2 2 2 2 1 1 1 1 1 0 0 0 1
4 5 5 6 6 3 3 1 6 6 5 5 7 7 4 2 2 4 5 6 7 7 7 6 7 6 5 5 5 5 5 4 4 3 2 2 2 2 3 2 1 1 1 1 0 0 0 0 1
2 6 6 3 1 4 4 2 6 5 6 5 4 4 3 2 2 4 6 7 7 7 7 7 8 6 6 6 5 4 4 3 3 3 3 2 2 3 3 2 1 1 1 0 0 0 0 0 0
4 2 4 6 2 2 5 6 8 7 8 9 8 7 6 4 3 3 4 5 6 7 7 8 8 7 6 6 5 5 4 4 4 3 3 2 3 3 2 2 1 1 1 0 0 0 0 0 0
4 7 5 5 3 1 4 4 4 8 9 9 9 8 8 6 4 3 2 4 5 6 5 6 7 7 6 6 6 5 5 5 4 3 3 3 3 2 2 2 1 1 1 0 1 0 0 0 0
3 4 5 4 4 5 0 5 4 4 6 6 7 8 7 6 5 3 2 2 3 3 4 5 5 5 5 6 5 5 5 4 4 4 4 4 3 3 3 2 2 1 1 1 1 1 0 0 1
2 4 5 4 1 3 3 6 4 3 5 5 6 8 7 6 5 3 3 2 1 2 3 4 5 5 6 5 5 5 5 4 4 5 5 4 4 3 3 2 2 2 2 2 2 2 1 1 1
Wind_Direction
129 97 84 57 53 45 307 264 213 240 190 92 71 78 96 87 89 129 97 133 129 131 140 146 142 134 127 120 116 113 108 102 98 94 95 97 98 103 117 140 155 155 150 158 148 149 139 114 97
115 100 59 58 76 48 289 265 251 234 163 136 81 71 75 71 75 105 115 140 132 133 129 139 141 134 127 124 119 110 103 96 91 85 80 76 69 56 34 311 261 233 210 212 220 223 208 199 170
118 62 73 73 96 194 249 253 234 34 132 112 77 57 82 120 129 146 161 138 127 126 125 146 140 133 128 123 116 108 99 91 79 68 50 34 13 359 341 314 294 279 263 256 251 256 254 242 233
93 53 57 72 236 238 231 250 211 132 106 78 101 75 58 84 152 150 137 134 129 127 128 148 139 134 130 125 119 111 98 82 55 28 10 351 335 327 321 314 305 294 285 278 268 261 262 262 251
67 79 64 12 267 261 254 258 191 175 117 94 106 103 59 13 112 128 135 138 139 137 135 147 142 137 135 132 127 119 102 77 43 20 6 357 337 324 317 306 298 294 294 290 281 270 267 266 268
70 76 90 272 279 292 280 231 154 115 106 107 112 117 112 96 127 140 140 141 145 144 141 142 153 149 150 146 137 126 99 58 26 10 358 353 341 330 318 310 297 290 291 292 284 278 269 265 265
111 110 167 233 285 298 278 166 144 131 133 161 139 119 130 171 165 146 138 136 139 140 138 145 149 153 161 161 152 124 70 35 20 5 356 348 343 340 333 321 308 295 286 287 285 283 273 263 266
129 109 97 283 273 279 310 120 139 147 152 132 132 145 185 193 156 128 118 120 132 139 152 166 156 111 71 25 216 183 24 22 16 7 0 359 1 355 343 337 321 304 296 289 289 288 281 275 274
100 84 229 243 237 274 353 25 21 59 106 103 139 174 178 141 133 122 116 117 152 177 186 178 178 182 174 240 303 5 10 14 15 7 5 12 9 357 343 339 337 325 317 308 302 302 297 292 291
101 132 226 225 230 276 349 13 35 59 75 93 80 87 123 135 146 153 165 180 191 201 204 195 190 194 194 234 59 16 17 16 10 4 6 9 12 358 4 356 359 358 353 345 335 330 326 323 327
149 181 228 292 273 287 14 341 43 121 229 208 189 158 146 151 161 173 185 190 198 201 199 190 187 186 175 166 81 31 16 14 6 8 15 21 22 8 12 7 4 3 7 2 352 358 357 355 323
151 175 147 309 331 38 339 324 8 202 238 225 186 160 159 169 179 187 193 196 193 191 198 187 178 170 173 153 129 99 57 22 13 3 18 42 30 14 7 9 355 358 351 344 343 345 340 331 306
149 175 116 15 11 298 305 282 264 261 266 195 154 157 172 183 191 199 198 194 189 192 193 182 170 168 164 151 171 127 120 84 47 25 17 68 74 23 13 4 1 351 344 342 330 332 332 325 314
150 81 352 343 10 357 317 275 206 262 208 169 169 179 187 194 195 194 197 200 196 194 189 176 170 168 155 156 159 148 135 119 68 50 26 57 81 57 28 7 357 343 334 327 317 309 312 307 305
92 58 1 335 341 329 349 310 244 240 171 179 190 196 200 206 201 203 203 201 195 189 178 172 173 161 159 159 161 146 144 125 87 52 32 38 52 41 34 12 347 326 322 328 331 322 322 315 318
68 61 359 315 343 324 107 266 261 211 174 198 205 206 211 217 214 216 206 199 186 175 172 179 169 154 156 149 141 129 120 116 91 47 24 15 20 38 39 15 335 326 331 339 330 336 324 319 322
44 70 315 305 237 248 194 262 275 212 200 218 216 213 218 226 228 222 207 196 183 178 172 166 152 149 146 131 110 97 87 80 52 30 8 355 3 10 22 356 325 335 347 345 323 358 296 303 320
169 152 253 272 256 200 256 270 283 254 218 228 224 219 220 222 227 216 200 187 175 168 162 156 147 144 131 108 86 62 49 24 12 358 332 346 352 357 3 345 338 348 358 346 340 329 328 290 304
146 150 230 260 238 219 262 277 285 275 238 235 230 224 225 228 228 202 183 169 159 159 161 165 158 155 142 125 124 119 180 307 319 314 323 338 340 347 352 342 340 349 354 327 324 323 348 354 354
108 97 296 308 321 230 290 288 287 266 239 230 226 225 225 226 215 197 179 170 172 174 175 174 172 168 170 159 150 154 156 222 263 300 323 329 334 334 324 323 321 331 335 346 351 7 8 358 28
104 179 210 273 346 13 342 330 329 318 310 286 241 224 218 212 210 199 186 183 179 182 184 183 181 177 175 156 119 86 58 28 5 336 322 320 324 329 331 318 310 321 326 318 314 337 84 13 358
265 232 190 177 44 343 33 332 311 322 331 327 300 247 229 221 209 196 187 188 193 192 182 177 176 175 172 161 158 151 154 189 239 259 285 306 322 329 328 321 313 315 318 314 304 90 179 138 3
215 55 89 76 104 26 19 64 302 341 344 323 308 279 254 229 211 204 197 195 192 181 176 174 171 176 174 173 170 159 165 196 238 280 301 313 321 323 324 323 321 328 310 300 318 360 92 147 166
137 64 56 50 66 40 342 69 305 313 302 312 318 309 280 247 221 210 193 179 179 174 172 169 172 183 181 179 175 175 180 186 198 264 291 302 310 311 316 316 315 309 298 294 292 296 138 135 145
83 80 36 19 25 303 313 89 262 283 293 287 295 303 301 277 217 200 188 187 187 183 180 176 179 190 189 187 191 193 193 189 200 219 236 258 287 291 292 302 294 289 282 283 295 14 68 159 143
137 126 139 148 202 300 346 309 269 297 311 317 317 322 340 321 260 221 206 198 194 189 183 181 187 195 193 196 204 202 197 194 210 218 221 232 241 258 275 281 277 282 293 305 64 306 285 134 148
121 111 147 123 113 25 328 321 319 343 354 356 356 357 342 322 298 261 223 202 196 193 192 191 192 199 200 201 202 204 205 207 217 227 226 236 246 257 268 272 278 282 284 286 108 68 323 110 132
108 135 94 92 110 27 331 333 306 326 332 340 344 338 327 328 321 295 248 216 206 201 196 188 192 202 205 203 206 207 209 213 217 220 230 239 249 255 265 270 266 271 274 260 129 272 300 84 291
86 77 88 93 132 136 351 290 261 285 309 322 323 326 326 325 319 307 289 252 217 196 189 195 201 205 207 207 211 213 213 211 210 219 232 235 241 241 240 241 237 242 249 231 178 216 178 147 315
122 139 138 130 166 140 149 265 299 307 313 324 327 334 341 341 337 339 340 347 313 220 210 210 210 212 217 209 207 216 219 209 212 226 235 231 237 240 233 229 224 234 235 220 208 231 218 206 236